Terminal Aerodrome Forecast
Issued by NWS Wichita, KS

Home | Current Version | Previous Version | Text Only | Print | Product List | Glossary Off
Versions: 1 2 3 4 5 6 7 8 9 10 11 12 13 14 15 16 17 18 19 20 21

032
FTUS43 KICT 262322
TAFICT
TAF
KICT 262322Z 2700/2724 06010KT P6SM VCTS SCT025 BKN070CB
      TEMPO 2700/2702 VRB20G35KT 2SM +TSRA OVC025CB
     FM270400 03011KT 6SM BR OVC010
      TEMPO 2704/2706 4SM SHRA SCT010 OVC020
     FM270600 01012KT 4SM BR VCSH OVC005
     FM271500 36009KT P6SM SCT020=

USA.gov is the U.S. government's official web portal to all federal, state and local government web resources and services.